Year,Month,Day,Hour,Minute,Value (Times are PST for temperature in C)
2023,04,27,00,00,8.70
2023,04,27,00,01,8.70
2023,04,27,00,02,8.70
2023,04,27,00,03,8.70
2023,04,27,00,04,8.70
2023,04,27,00,05,8.70
2023,04,27,00,06,8.60
2023,04,27,00,07,8.60
2023,04,27,00,08,8.60
2023,04,27,00,09,8.60
2023,04,27,00,10,8.60
2023,04,27,00,11,8.60
2023,04,27,00,12,8.50
2023,04,27,00,13,8.50
2023,04,27,00,14,8.50
2023,04,27,00,15,8.40
2023,04,27,00,16,8.40
2023,04,27,00,17,8.40
2023,04,27,00,18,8.40
2023,04,27,00,19,8.40
2023,04,27,00,20,8.40
2023,04,27,00,21,8.40
2023,04,27,00,22,8.30
2023,04,27,00,23,8.30
2023,04,27,00,24,8.30
2023,04,27,00,25,8.30
2023,04,27,00,26,8.30
2023,04,27,00,27,8.30
2023,04,27,00,28,8.30
2023,04,27,00,29,8.30
2023,04,27,00,30,8.30
2023,04,27,00,31,8.30
2023,04,27,00,32,8.30
2023,04,27,00,33,8.20
2023,04,27,00,34,8.20
2023,04,27,00,35,8.20
2023,04,27,00,36,8.20
2023,04,27,00,37,8.20
2023,04,27,00,38,8.20
2023,04,27,00,39,8.20
2023,04,27,00,40,8.20
2023,04,27,00,41,8.20
2023,04,27,00,42,8.20
2023,04,27,00,43,8.20
2023,04,27,00,44,8.10
2023,04,27,00,45,8.10
2023,04,27,00,46,8.10
2023,04,27,00,47,8.10
2023,04,27,00,48,8.10
2023,04,27,00,49,8.10
2023,04,27,00,50,8.10
2023,04,27,00,51,8.10
2023,04,27,00,52,8.10
2023,04,27,00,53,8.10
2023,04,27,00,54,8.00
2023,04,27,00,55,8.00
2023,04,27,00,56,8.00
2023,04,27,00,57,8.00
2023,04,27,00,58,7.90
2023,04,27,00,59,7.90
2023,04,27,01,00,7.90
2023,04,27,01,01,7.90
2023,04,27,01,02,7.90
2023,04,27,01,03,7.90
2023,04,27,01,04,7.90
2023,04,27,01,05,7.90
2023,04,27,01,06,7.80
2023,04,27,01,07,7.80
2023,04,27,01,08,7.80
2023,04,27,01,09,7.80
2023,04,27,01,10,7.80
2023,04,27,01,11,7.80
2023,04,27,01,12,7.80
2023,04,27,01,13,7.80
2023,04,27,01,14,7.80
2023,04,27,01,15,7.80
2023,04,27,01,16,7.70
2023,04,27,01,17,7.70
2023,04,27,01,18,7.70
2023,04,27,01,19,7.70
2023,04,27,01,20,7.70
2023,04,27,01,21,7.70
2023,04,27,01,22,7.70
2023,04,27,01,23,7.60
2023,04,27,01,24,7.60
2023,04,27,01,25,7.60
2023,04,27,01,26,7.60
2023,04,27,01,27,7.60
2023,04,27,01,28,7.60
2023,04,27,01,29,7.60
2023,04,27,01,30,7.60
2023,04,27,01,31,7.60
2023,04,27,01,32,7.60
2023,04,27,01,33,7.50
2023,04,27,01,34,7.50
2023,04,27,01,35,7.50
2023,04,27,01,36,7.50
2023,04,27,01,37,7.50
2023,04,27,01,38,7.50
2023,04,27,01,39,7.50
2023,04,27,01,40,7.50
2023,04,27,01,41,7.50
2023,04,27,01,42,7.40
2023,04,27,01,43,7.40
2023,04,27,01,44,7.40
2023,04,27,01,45,7.40
2023,04,27,01,46,7.40
2023,04,27,01,47,7.40
2023,04,27,01,48,7.40
2023,04,27,01,49,7.40
2023,04,27,01,50,7.40
2023,04,27,01,51,7.40
2023,04,27,01,52,7.40
2023,04,27,01,53,7.40
2023,04,27,01,54,7.40
2023,04,27,01,55,7.40
2023,04,27,01,56,7.40
2023,04,27,01,57,7.40
2023,04,27,01,58,7.40
2023,04,27,01,59,7.40
2023,04,27,02,00,7.40
2023,04,27,02,01,7.40
2023,04,27,02,02,7.40
2023,04,27,02,03,7.40
2023,04,27,02,04,7.40
2023,04,27,02,05,7.40
2023,04,27,02,06,7.40
2023,04,27,02,07,7.40
2023,04,27,02,08,7.40
2023,04,27,02,09,7.40
2023,04,27,02,10,7.40
2023,04,27,02,11,7.40
2023,04,27,02,12,7.40
2023,04,27,02,13,7.50
2023,04,27,02,14,7.50
2023,04,27,02,15,7.60
2023,04,27,02,16,7.60
2023,04,27,02,17,7.60
2023,04,27,02,18,7.60
2023,04,27,02,19,7.60
2023,04,27,02,20,7.60
2023,04,27,02,21,7.60
2023,04,27,02,22,7.60
2023,04,27,02,23,7.60
2023,04,27,02,24,7.70
2023,04,27,02,25,7.70
2023,04,27,02,26,7.70
2023,04,27,02,27,7.70
2023,04,27,02,28,7.70
2023,04,27,02,29,7.70
2023,04,27,02,30,7.70
2023,04,27,02,31,7.70
2023,04,27,02,32,7.70
2023,04,27,02,33,7.70
2023,04,27,02,34,7.70
2023,04,27,02,35,7.70
2023,04,27,02,36,7.70
2023,04,27,02,37,7.70
2023,04,27,02,38,7.70
2023,04,27,02,39,7.70
2023,04,27,02,40,7.70
2023,04,27,02,41,7.70
2023,04,27,02,42,7.80
2023,04,27,02,43,7.80
2023,04,27,02,44,7.80
2023,04,27,02,45,7.80
2023,04,27,02,46,7.80
2023,04,27,02,47,7.80
2023,04,27,02,48,7.80
2023,04,27,02,49,7.90
2023,04,27,02,50,7.90
2023,04,27,02,51,8.00
2023,04,27,02,52,8.00
2023,04,27,02,53,8.10
2023,04,27,02,54,8.10
2023,04,27,02,55,8.20
2023,04,27,02,56,8.20
2023,04,27,02,57,8.20
2023,04,27,02,58,8.30
2023,04,27,02,59,8.30
2023,04,27,03,00,8.30
2023,04,27,03,01,8.30
2023,04,27,03,02,8.30
2023,04,27,03,03,8.30
2023,04,27,03,04,8.30
2023,04,27,03,05,8.40
2023,04,27,03,06,8.40
2023,04,27,03,07,8.40
2023,04,27,03,08,8.40
2023,04,27,03,09,8.40
2023,04,27,03,10,8.40
2023,04,27,03,11,8.40
2023,04,27,03,12,8.50
2023,04,27,03,13,8.50
2023,04,27,03,14,8.50
2023,04,27,03,15,8.50
2023,04,27,03,16,8.60
2023,04,27,03,17,8.60
2023,04,27,03,18,8.60
2023,04,27,03,19,8.60
2023,04,27,03,20,8.60
2023,04,27,03,21,8.60
2023,04,27,03,22,8.60
2023,04,27,03,23,8.60
2023,04,27,03,24,8.60
2023,04,27,03,25,8.60
2023,04,27,03,26,8.60
2023,04,27,03,27,8.60
2023,04,27,03,28,8.60
2023,04,27,03,29,8.60
2023,04,27,03,30,8.60
2023,04,27,03,31,8.60
2023,04,27,03,32,8.60
2023,04,27,03,33,8.60
2023,04,27,03,34,8.70
2023,04,27,03,35,8.70
2023,04,27,03,36,8.70
2023,04,27,03,37,8.70
2023,04,27,03,38,8.60
2023,04,27,03,39,8.70
2023,04,27,03,40,8.70
2023,04,27,03,41,8.60
2023,04,27,03,42,8.60
2023,04,27,03,43,8.70
2023,04,27,03,44,8.60
2023,04,27,03,45,8.60
2023,04,27,03,46,8.60
2023,04,27,03,47,8.60
2023,04,27,03,48,8.60
2023,04,27,03,49,8.60
2023,04,27,03,50,8.60
2023,04,27,03,51,8.60
2023,04,27,03,52,8.60
2023,04,27,03,53,8.60
2023,04,27,03,54,8.60
2023,04,27,03,55,8.60
2023,04,27,03,56,8.60
2023,04,27,03,57,8.60
2023,04,27,03,58,8.60
2023,04,27,03,59,8.60
2023,04,27,04,00,8.60
2023,04,27,04,01,8.60
2023,04,27,04,02,8.60
2023,04,27,04,03,8.60
2023,04,27,04,04,8.60
2023,04,27,04,05,8.60
2023,04,27,04,06,8.60
2023,04,27,04,07,8.60
2023,04,27,04,08,8.60
2023,04,27,04,09,8.60
2023,04,27,04,10,8.60
2023,04,27,04,11,8.60
2023,04,27,04,12,8.60
2023,04,27,04,13,8.60
2023,04,27,04,14,8.60
2023,04,27,04,15,8.60
2023,04,27,04,16,8.60
2023,04,27,04,17,8.60
2023,04,27,04,18,8.60
2023,04,27,04,19,8.60
2023,04,27,04,20,8.60
2023,04,27,04,21,8.60
2023,04,27,04,22,8.70
2023,04,27,04,23,8.60
2023,04,27,04,24,8.60
2023,04,27,04,25,8.60
2023,04,27,04,26,8.60
2023,04,27,04,27,8.60
2023,04,27,04,28,8.60
2023,04,27,04,29,8.60
2023,04,27,04,30,8.60
2023,04,27,04,31,8.60
2023,04,27,04,32,8.60
2023,04,27,04,33,8.60
2023,04,27,04,34,8.60
2023,04,27,04,35,8.60
2023,04,27,04,36,8.60
2023,04,27,04,37,8.60
2023,04,27,04,38,8.60
2023,04,27,04,39,8.60
2023,04,27,04,40,8.60
2023,04,27,04,41,8.60
2023,04,27,04,42,8.60
2023,04,27,04,43,8.60
2023,04,27,04,44,8.60
2023,04,27,04,45,8.60
2023,04,27,04,46,8.50
2023,04,27,04,47,8.50
2023,04,27,04,48,8.50
2023,04,27,04,49,8.60
2023,04,27,04,50,8.60
2023,04,27,04,51,8.60
2023,04,27,04,52,8.60
2023,04,27,04,53,8.60
2023,04,27,04,54,8.60
2023,04,27,04,55,8.60
2023,04,27,04,56,8.60
2023,04,27,04,57,8.60
2023,04,27,04,58,8.60
2023,04,27,04,59,8.50
2023,04,27,05,00,8.60
2023,04,27,05,01,8.60
2023,04,27,05,02,8.50
2023,04,27,05,03,8.60
2023,04,27,05,04,8.50
2023,04,27,05,05,8.60
2023,04,27,05,06,8.60
2023,04,27,05,07,8.60
2023,04,27,05,08,8.60
2023,04,27,05,09,8.60
2023,04,27,05,10,8.60
2023,04,27,05,11,8.60
2023,04,27,05,12,8.60
2023,04,27,05,13,8.60
2023,04,27,05,14,8.60
2023,04,27,05,15,8.60
2023,04,27,05,16,8.60
2023,04,27,05,17,8.60
2023,04,27,05,18,8.60
2023,04,27,05,19,8.60
2023,04,27,05,20,8.60
2023,04,27,05,21,8.70
2023,04,27,05,22,8.70
2023,04,27,05,23,8.70
2023,04,27,05,24,8.70
2023,04,27,05,25,8.70
2023,04,27,05,26,8.70
2023,04,27,05,27,8.70
2023,04,27,05,28,8.70
2023,04,27,05,29,8.70
2023,04,27,05,30,8.70
2023,04,27,05,31,8.70
2023,04,27,05,32,8.70
2023,04,27,05,33,8.70
2023,04,27,05,34,8.70
2023,04,27,05,35,8.70
2023,04,27,05,36,8.70
2023,04,27,05,37,8.70
2023,04,27,05,38,8.70
2023,04,27,05,39,8.70
2023,04,27,05,40,8.70
2023,04,27,05,41,8.70
2023,04,27,05,42,8.70
2023,04,27,05,43,8.70
2023,04,27,05,44,8.70
2023,04,27,05,45,8.70
2023,04,27,05,46,8.70
2023,04,27,05,47,8.70
2023,04,27,05,48,8.70
2023,04,27,05,49,8.70
2023,04,27,05,50,8.70
2023,04,27,05,51,8.70
2023,04,27,05,52,8.70
2023,04,27,05,53,8.70
2023,04,27,05,54,8.70
2023,04,27,05,55,8.80
2023,04,27,05,56,8.80
2023,04,27,05,57,8.80
2023,04,27,05,58,8.80
2023,04,27,05,59,8.80
2023,04,27,06,00,8.80
2023,04,27,06,01,8.80
2023,04,27,06,02,8.80
2023,04,27,06,03,8.80
2023,04,27,06,04,8.80
2023,04,27,06,05,8.80
2023,04,27,06,06,8.80
2023,04,27,06,07,8.80
2023,04,27,06,08,8.80
2023,04,27,06,09,8.80
2023,04,27,06,10,8.80
2023,04,27,06,11,8.80
2023,04,27,06,12,8.80
2023,04,27,06,13,8.80
2023,04,27,06,14,8.80
2023,04,27,06,15,8.90
2023,04,27,06,16,8.90
2023,04,27,06,17,8.90
2023,04,27,06,18,8.90
2023,04,27,06,19,8.90
2023,04,27,06,20,8.90
2023,04,27,06,21,8.90
2023,04,27,06,22,8.90
2023,04,27,06,23,8.90
2023,04,27,06,24,8.90
2023,04,27,06,25,8.90
2023,04,27,06,26,8.90
2023,04,27,06,27,8.90
2023,04,27,06,28,8.90
2023,04,27,06,29,8.90
2023,04,27,06,30,8.90
2023,04,27,06,31,8.90
2023,04,27,06,32,9.00
2023,04,27,06,33,9.00
2023,04,27,06,34,9.00
2023,04,27,06,35,9.00
2023,04,27,06,36,9.00
2023,04,27,06,37,9.00
2023,04,27,06,38,9.00
2023,04,27,06,39,9.00
2023,04,27,06,40,9.00
2023,04,27,06,41,9.00
2023,04,27,06,42,9.10
2023,04,27,06,43,9.10
2023,04,27,06,44,9.10
2023,04,27,06,45,9.10
2023,04,27,06,46,9.10
2023,04,27,06,47,9.10
2023,04,27,06,48,9.10
2023,04,27,06,49,9.10
2023,04,27,06,50,9.10
2023,04,27,06,51,9.10
2023,04,27,06,52,9.10
2023,04,27,06,53,9.10
2023,04,27,06,54,9.10
2023,04,27,06,55,9.10
2023,04,27,06,56,9.10
2023,04,27,06,57,9.10
2023,04,27,06,58,9.10
2023,04,27,06,59,9.10
2023,04,27,07,00,9.10
2023,04,27,07,01,9.10
2023,04,27,07,02,9.10
2023,04,27,07,03,9.10
2023,04,27,07,04,9.10
2023,04,27,07,05,9.10
2023,04,27,07,06,9.10
2023,04,27,07,07,9.10
2023,04,27,07,08,9.10
2023,04,27,07,09,9.10
2023,04,27,07,10,9.10
2023,04,27,07,11,9.10
2023,04,27,07,12,9.10
2023,04,27,07,13,9.10
2023,04,27,07,14,9.20
2023,04,27,07,15,9.20
2023,04,27,07,16,9.20
2023,04,27,07,17,9.20
2023,04,27,07,18,9.20
2023,04,27,07,19,9.20
2023,04,27,07,20,9.30
2023,04,27,07,21,9.30
2023,04,27,07,22,9.30
2023,04,27,07,23,9.30
2023,04,27,07,24,9.30
2023,04,27,07,25,9.30
2023,04,27,07,26,9.30
2023,04,27,07,27,9.40
2023,04,27,07,28,9.40
2023,04,27,07,29,9.40
2023,04,27,07,30,9.40
2023,04,27,07,31,9.50
2023,04,27,07,32,9.50
2023,04,27,07,33,9.50
2023,04,27,07,34,9.60
2023,04,27,07,35,9.60
2023,04,27,07,36,9.60
2023,04,27,07,37,9.70
2023,04,27,07,38,9.70
2023,04,27,07,39,9.70
2023,04,27,07,40,9.80
2023,04,27,07,41,9.80
2023,04,27,07,42,9.90
2023,04,27,07,43,9.90
2023,04,27,07,44,10.00
2023,04,27,07,45,10.00
2023,04,27,07,46,10.10
2023,04,27,07,47,10.10
2023,04,27,07,48,10.10
2023,04,27,07,49,10.20
2023,04,27,07,50,10.20
2023,04,27,07,51,10.20
2023,04,27,07,52,10.30
2023,04,27,07,53,10.30
2023,04,27,07,54,10.30
2023,04,27,07,55,10.30
2023,04,27,07,56,10.40
2023,04,27,07,57,10.40
2023,04,27,07,58,10.40
2023,04,27,07,59,10.50
2023,04,27,08,00,10.50
2023,04,27,08,01,10.50
2023,04,27,08,02,10.60
2023,04,27,08,03,10.60
2023,04,27,08,04,10.60
2023,04,27,08,05,10.60
2023,04,27,08,06,10.60
2023,04,27,08,07,10.70
2023,04,27,08,08,10.70
2023,04,27,08,09,10.70
2023,04,27,08,10,10.70
2023,04,27,08,11,10.70
2023,04,27,08,12,10.80
2023,04,27,08,13,10.80
2023,04,27,08,14,10.80
2023,04,27,08,15,10.90
2023,04,27,08,16,10.90
2023,04,27,08,17,10.90
2023,04,27,08,18,10.90
2023,04,27,08,19,11.00
2023,04,27,08,20,11.00
2023,04,27,08,21,11.10
2023,04,27,08,22,11.10
2023,04,27,08,23,11.20
2023,04,27,08,24,11.20
2023,04,27,08,25,11.30
2023,04,27,08,26,11.30
2023,04,27,08,27,11.40
2023,04,27,08,28,11.50
2023,04,27,08,29,11.50
2023,04,27,08,30,11.60
2023,04,27,08,31,11.60
2023,04,27,08,32,11.60
2023,04,27,08,33,11.70
2023,04,27,08,34,11.70
2023,04,27,08,35,11.80
2023,04,27,08,36,11.80
2023,04,27,08,37,11.80
2023,04,27,08,38,11.90
2023,04,27,08,39,11.90
2023,04,27,08,40,11.90
2023,04,27,08,41,12.00
2023,04,27,08,42,12.10
2023,04,27,08,43,12.10
2023,04,27,08,44,12.10
2023,04,27,08,45,12.10
2023,04,27,08,46,12.20
2023,04,27,08,47,12.20
2023,04,27,08,48,12.20
2023,04,27,08,49,12.20
2023,04,27,08,50,12.30
2023,04,27,08,51,12.30
2023,04,27,08,52,12.40
2023,04,27,08,53,12.50
2023,04,27,08,54,12.50
2023,04,27,08,55,12.60
2023,04,27,08,56,12.60
2023,04,27,08,57,12.70
2023,04,27,08,58,12.70
2023,04,27,08,59,12.80
2023,04,27,09,00,12.80
2023,04,27,09,01,12.80
2023,04,27,09,02,12.80
2023,04,27,09,03,12.80
2023,04,27,09,04,12.80
2023,04,27,09,05,12.80
2023,04,27,09,06,12.80
2023,04,27,09,07,12.80
2023,04,27,09,08,12.80
2023,04,27,09,09,12.80
2023,04,27,09,10,12.90
2023,04,27,09,11,12.90
2023,04,27,09,12,12.90
2023,04,27,09,13,12.90
2023,04,27,09,14,12.90
2023,04,27,09,15,12.90
2023,04,27,09,16,12.90
2023,04,27,09,17,12.90
2023,04,27,09,18,12.80
2023,04,27,09,19,12.80
2023,04,27,09,20,12.80
2023,04,27,09,21,12.90
2023,04,27,09,22,12.90
2023,04,27,09,23,13.00
2023,04,27,09,24,13.00
2023,04,27,09,25,13.10
2023,04,27,09,26,13.10
2023,04,27,09,27,13.10
2023,04,27,09,28,13.20
2023,04,27,09,29,13.20
2023,04,27,09,30,13.20
2023,04,27,09,31,13.20
2023,04,27,09,32,13.20
2023,04,27,09,33,13.20
2023,04,27,09,34,13.20
2023,04,27,09,35,13.30
2023,04,27,09,36,13.30
2023,04,27,09,37,13.30
2023,04,27,09,38,13.30
2023,04,27,09,39,13.30
2023,04,27,09,40,13.30
2023,04,27,09,41,13.30
2023,04,27,09,42,13.30
2023,04,27,09,43,13.30
2023,04,27,09,44,13.40
2023,04,27,09,45,13.40
2023,04,27,09,46,13.50
2023,04,27,09,47,13.60
2023,04,27,09,48,13.70
2023,04,27,09,49,13.70
2023,04,27,09,50,13.80
2023,04,27,09,51,13.90
2023,04,27,09,52,13.90
2023,04,27,09,53,14.00
2023,04,27,09,54,14.10
2023,04,27,09,55,14.10
2023,04,27,09,56,14.20
2023,04,27,09,57,14.30
2023,04,27,09,58,14.30
2023,04,27,09,59,14.40
2023,04,27,10,00,14.40
2023,04,27,10,01,14.30
2023,04,27,10,02,14.30
2023,04,27,10,03,14.30
2023,04,27,10,04,14.20
2023,04,27,10,05,14.20
2023,04,27,10,06,14.20
2023,04,27,10,07,14.30
2023,04,27,10,08,14.40
2023,04,27,10,09,14.50
2023,04,27,10,10,14.60
2023,04,27,10,11,14.70
2023,04,27,10,12,14.70
2023,04,27,10,13,14.70
2023,04,27,10,14,14.80
2023,04,27,10,15,14.90
2023,04,27,10,16,14.90
2023,04,27,10,17,14.90
2023,04,27,10,18,14.90
2023,04,27,10,19,14.90
2023,04,27,10,20,14.90
2023,04,27,10,21,14.80
2023,04,27,10,22,14.80
2023,04,27,10,23,14.80
2023,04,27,10,24,14.80
2023,04,27,10,25,14.90
2023,04,27,10,26,14.90
2023,04,27,10,27,14.90
2023,04,27,10,28,15.00
2023,04,27,10,29,15.10
2023,04,27,10,30,15.20
2023,04,27,10,31,15.20
2023,04,27,10,32,15.30
2023,04,27,10,33,15.30
2023,04,27,10,34,15.20
2023,04,27,10,35,15.20
2023,04,27,10,36,15.20
2023,04,27,10,37,15.20
2023,04,27,10,38,15.10
2023,04,27,10,39,15.10
2023,04,27,10,40,15.00
2023,04,27,10,41,14.90
2023,04,27,10,42,14.80
2023,04,27,10,43,14.80
2023,04,27,10,44,14.80
2023,04,27,10,45,14.80
2023,04,27,10,46,14.80
2023,04,27,10,47,14.90
2023,04,27,10,48,14.90
2023,04,27,10,49,14.90
2023,04,27,10,50,15.00
2023,04,27,10,51,15.00
2023,04,27,10,52,14.90
2023,04,27,10,53,14.90
2023,04,27,10,54,14.90
2023,04,27,10,55,14.80
2023,04,27,10,56,14.80
2023,04,27,10,57,14.80
2023,04,27,10,58,14.80
2023,04,27,10,59,14.70
2023,04,27,11,00,14.70
2023,04,27,11,01,14.70
2023,04,27,11,02,14.70
2023,04,27,11,03,14.70
2023,04,27,11,04,14.70
2023,04,27,11,05,14.80
2023,04,27,11,06,14.80
2023,04,27,11,07,14.80
2023,04,27,11,08,14.80
2023,04,27,11,09,14.80
2023,04,27,11,10,14.80
2023,04,27,11,11,14.80
2023,04,27,11,12,14.70
2023,04,27,11,13,14.80
2023,04,27,11,14,14.80
2023,04,27,11,15,14.80
2023,04,27,11,16,14.90
2023,04,27,11,17,14.90
2023,04,27,11,18,15.00
2023,04,27,11,19,15.10
2023,04,27,11,20,15.20
2023,04,27,11,21,15.30
2023,04,27,11,22,15.40
2023,04,27,11,23,15.40
2023,04,27,11,24,15.50
2023,04,27,11,25,15.50
2023,04,27,11,26,15.40
2023,04,27,11,27,15.40
2023,04,27,11,28,15.30
2023,04,27,11,29,15.30
2023,04,27,11,30,15.20
2023,04,27,11,31,15.20
2023,04,27,11,32,15.20
2023,04,27,11,33,15.30
2023,04,27,11,34,15.30
2023,04,27,11,35,15.40
2023,04,27,11,36,15.40
2023,04,27,11,37,15.50
2023,04,27,11,38,15.60
2023,04,27,11,39,15.60
2023,04,27,11,40,15.60
2023,04,27,11,41,15.60
2023,04,27,11,42,15.70
2023,04,27,11,43,15.70
2023,04,27,11,44,15.80
2023,04,27,11,45,15.90
2023,04,27,11,46,16.00
2023,04,27,11,47,16.10
2023,04,27,11,48,16.20
2023,04,27,11,49,16.20
2023,04,27,11,50,16.20
2023,04,27,11,51,16.20
2023,04,27,11,52,16.20
2023,04,27,11,53,16.20
2023,04,27,11,54,16.20
2023,04,27,11,55,16.30
2023,04,27,11,56,16.30
2023,04,27,11,57,16.30
2023,04,27,11,58,16.30
2023,04,27,11,59,16.30
2023,04,27,12,00,16.30
2023,04,27,12,01,16.30
2023,04,27,12,02,16.20
2023,04,27,12,03,16.20
2023,04,27,12,04,16.20
2023,04,27,12,05,16.30
2023,04,27,12,06,16.30
2023,04,27,12,07,16.30
2023,04,27,12,08,16.40
2023,04,27,12,09,16.50
2023,04,27,12,10,16.60
2023,04,27,12,11,16.60
2023,04,27,12,12,16.60
2023,04,27,12,13,16.70
2023,04,27,12,14,16.70
2023,04,27,12,15,16.70
2023,04,27,12,16,16.60
2023,04,27,12,17,16.50
2023,04,27,12,18,16.50
2023,04,27,12,19,16.50
2023,04,27,12,20,16.60
2023,04,27,12,21,16.70
2023,04,27,12,22,16.90
2023,04,27,12,23,16.90
2023,04,27,12,24,17.00
2023,04,27,12,25,17.00
2023,04,27,12,26,17.00
2023,04,27,12,27,16.90
2023,04,27,12,28,16.90
2023,04,27,12,29,16.90
2023,04,27,12,30,16.90
2023,04,27,12,31,16.90
2023,04,27,12,32,17.00
2023,04,27,12,33,17.00
2023,04,27,12,34,17.10
2023,04,27,12,35,17.10
2023,04,27,12,36,17.10
2023,04,27,12,37,17.20
2023,04,27,12,38,17.20
2023,04,27,12,39,17.30
2023,04,27,12,40,17.40
2023,04,27,12,41,17.50
2023,04,27,12,42,17.70
2023,04,27,12,43,17.80
2023,04,27,12,44,17.80
2023,04,27,12,45,17.80
2023,04,27,12,46,17.90
2023,04,27,12,47,17.90
2023,04,27,12,48,18.00
2023,04,27,12,49,18.00
2023,04,27,12,50,18.10
2023,04,27,12,51,18.10
2023,04,27,12,52,18.00
2023,04,27,12,53,17.90
2023,04,27,12,54,18.00
2023,04,27,12,55,17.90
2023,04,27,12,56,18.00
2023,04,27,12,57,18.10
2023,04,27,12,58,18.10
2023,04,27,12,59,18.00
2023,04,27,13,00,18.00
2023,04,27,13,01,17.90
2023,04,27,13,02,17.90
2023,04,27,13,03,17.80
2023,04,27,13,04,17.70
2023,04,27,13,05,17.60
2023,04,27,13,06,17.60
2023,04,27,13,07,17.50
2023,04,27,13,08,17.40
2023,04,27,13,09,17.40
2023,04,27,13,10,17.30
2023,04,27,13,11,17.30
2023,04,27,13,12,17.30
2023,04,27,13,13,17.40
2023,04,27,13,14,17.40
2023,04,27,13,15,17.40
2023,04,27,13,16,17.30
2023,04,27,13,17,17.30
2023,04,27,13,18,17.30
2023,04,27,13,19,17.30
2023,04,27,13,20,17.30
2023,04,27,13,21,17.20
2023,04,27,13,22,17.20
2023,04,27,13,23,17.20
2023,04,27,13,24,17.20
2023,04,27,13,25,17.20
2023,04,27,13,26,17.20
2023,04,27,13,27,17.20
2023,04,27,13,28,17.30
2023,04,27,13,29,17.30
2023,04,27,13,30,17.20
2023,04,27,13,31,17.30
2023,04,27,13,32,17.30
2023,04,27,13,33,17.30
2023,04,27,13,34,17.30
2023,04,27,13,35,17.20
2023,04,27,13,36,17.30
2023,04,27,13,37,17.30
2023,04,27,13,38,17.30
2023,04,27,13,39,17.30
2023,04,27,13,40,17.30
2023,04,27,13,41,17.40
2023,04,27,13,42,17.50
2023,04,27,13,43,17.60
2023,04,27,13,44,17.70
2023,04,27,13,45,17.70
2023,04,27,13,46,17.80
2023,04,27,13,47,17.80
2023,04,27,13,48,17.90
2023,04,27,13,49,18.00
2023,04,27,13,50,18.00
2023,04,27,13,51,18.10
2023,04,27,13,52,18.10
2023,04,27,13,53,18.10
2023,04,27,13,54,18.00
2023,04,27,13,55,18.00
2023,04,27,13,56,18.00
2023,04,27,13,57,17.90
2023,04,27,13,58,17.90
2023,04,27,13,59,17.70
2023,04,27,14,00,17.60
2023,04,27,14,01,17.50
2023,04,27,14,02,17.50
2023,04,27,14,03,17.50
2023,04,27,14,04,17.50
2023,04,27,14,05,17.50
2023,04,27,14,06,17.60
2023,04,27,14,07,17.60
2023,04,27,14,08,17.60
2023,04,27,14,09,17.60
2023,04,27,14,10,17.60
2023,04,27,14,11,17.60
2023,04,27,14,12,17.70
2023,04,27,14,13,17.70
2023,04,27,14,14,17.70
2023,04,27,14,15,17.70
2023,04,27,14,16,17.80
2023,04,27,14,17,17.80
2023,04,27,14,18,17.90
2023,04,27,14,19,17.90
2023,04,27,14,20,17.90
2023,04,27,14,21,18.00
2023,04,27,14,22,18.00
2023,04,27,14,23,18.00
2023,04,27,14,24,18.00
2023,04,27,14,25,18.00
2023,04,27,14,26,18.00
2023,04,27,14,27,18.00
2023,04,27,14,28,17.90
2023,04,27,14,29,17.90
2023,04,27,14,30,17.80
2023,04,27,14,31,17.80
2023,04,27,14,32,17.80
2023,04,27,14,33,17.80
2023,04,27,14,34,17.70
2023,04,27,14,35,17.70
2023,04,27,14,36,17.70
2023,04,27,14,37,17.80
2023,04,27,14,38,17.80
2023,04,27,14,39,17.80
2023,04,27,14,40,17.90
2023,04,27,14,41,18.00
2023,04,27,14,42,18.10
2023,04,27,14,43,18.10
2023,04,27,14,44,18.20
2023,04,27,14,45,18.20
2023,04,27,14,46,18.20
2023,04,27,14,47,18.10
2023,04,27,14,48,18.10
2023,04,27,14,49,18.00
2023,04,27,14,50,17.90
2023,04,27,14,51,17.90
2023,04,27,14,52,17.80
2023,04,27,14,53,17.80
2023,04,27,14,54,17.80
2023,04,27,14,55,17.80
2023,04,27,14,56,17.80
2023,04,27,14,57,17.80
2023,04,27,14,58,17.80
2023,04,27,14,59,17.80
2023,04,27,15,00,17.80
2023,04,27,15,01,17.80
2023,04,27,15,02,17.70
2023,04,27,15,03,17.70
2023,04,27,15,04,17.70
2023,04,27,15,05,17.70
2023,04,27,15,06,17.70
2023,04,27,15,07,17.70
2023,04,27,15,08,17.70
2023,04,27,15,09,17.80
2023,04,27,15,10,17.80
2023,04,27,15,11,17.90
2023,04,27,15,12,18.00
2023,04,27,15,13,18.00
2023,04,27,15,14,18.10
2023,04,27,15,15,18.10
2023,04,27,15,16,18.10
2023,04,27,15,17,18.10
2023,04,27,15,18,18.10
2023,04,27,15,19,18.00
2023,04,27,15,20,18.00
2023,04,27,15,21,17.90
2023,04,27,15,22,17.80
2023,04,27,15,23,17.80
2023,04,27,15,24,17.80
2023,04,27,15,25,17.70
2023,04,27,15,26,17.70
2023,04,27,15,27,17.60
2023,04,27,15,28,17.60
2023,04,27,15,29,17.60
2023,04,27,15,30,17.60
2023,04,27,15,31,17.60
2023,04,27,15,32,17.60
2023,04,27,15,33,17.60
2023,04,27,15,34,17.60
2023,04,27,15,35,17.60
2023,04,27,15,36,17.60
2023,04,27,15,37,17.70
2023,04,27,15,38,17.70
2023,04,27,15,39,17.70
2023,04,27,15,40,17.70
2023,04,27,15,41,17.80
2023,04,27,15,42,17.80
2023,04,27,15,43,17.80
2023,04,27,15,44,17.70
2023,04,27,15,45,17.80
2023,04,27,15,46,17.80
2023,04,27,15,47,17.80
2023,04,27,15,48,17.90
2023,04,27,15,49,18.00
2023,04,27,15,50,18.00
2023,04,27,15,51,18.10
2023,04,27,15,52,18.10
2023,04,27,15,53,18.20
2023,04,27,15,54,18.20
2023,04,27,15,55,18.20
2023,04,27,15,56,18.20
2023,04,27,15,57,18.10
2023,04,27,15,58,18.10
2023,04,27,15,59,18.00
2023,04,27,16,00,18.00
2023,04,27,16,01,18.00
2023,04,27,16,02,18.00
2023,04,27,16,03,18.00
2023,04,27,16,04,17.90
2023,04,27,16,05,17.80
2023,04,27,16,06,17.80
2023,04,27,16,07,17.80
2023,04,27,16,08,17.90
2023,04,27,16,09,17.90
2023,04,27,16,10,17.90
2023,04,27,16,11,17.90
2023,04,27,16,12,17.90
2023,04,27,16,13,17.90
2023,04,27,16,14,17.90
2023,04,27,16,15,17.90
2023,04,27,16,16,17.90
2023,04,27,16,17,17.90
2023,04,27,16,18,17.80
2023,04,27,16,19,17.80
2023,04,27,16,20,17.80
2023,04,27,16,21,17.80
2023,04,27,16,22,17.80
2023,04,27,16,23,17.80
2023,04,27,16,24,17.70
2023,04,27,16,25,17.70
2023,04,27,16,26,17.80
2023,04,27,16,27,17.80
2023,04,27,16,28,17.90
2023,04,27,16,29,17.90
2023,04,27,16,30,17.90
2023,04,27,16,31,17.90
2023,04,27,16,32,17.90
2023,04,27,16,33,17.90
2023,04,27,16,34,18.00
2023,04,27,16,35,18.00
2023,04,27,16,36,18.10
2023,04,27,16,37,18.10
2023,04,27,16,38,18.10
2023,04,27,16,39,18.10
2023,04,27,16,40,18.10
2023,04,27,16,41,18.10
2023,04,27,16,42,18.10
2023,04,27,16,43,18.20
2023,04,27,16,44,18.20
2023,04,27,16,45,18.20
2023,04,27,16,46,18.20
2023,04,27,16,47,18.30
2023,04,27,16,48,18.30
2023,04,27,16,49,18.30
2023,04,27,16,50,18.20
2023,04,27,16,51,18.30
2023,04,27,16,52,18.30
2023,04,27,16,53,18.20
2023,04,27,16,54,18.20
2023,04,27,16,55,18.30
2023,04,27,16,56,18.30
2023,04,27,16,57,18.30
2023,04,27,16,58,18.40
2023,04,27,16,59,18.40
2023,04,27,17,00,18.50
2023,04,27,17,01,18.50
2023,04,27,17,02,18.60
2023,04,27,17,03,18.60
2023,04,27,17,04,18.60
2023,04,27,17,05,18.70
2023,04,27,17,06,18.60
2023,04,27,17,07,18.60
2023,04,27,17,08,18.50
2023,04,27,17,09,18.50
2023,04,27,17,10,18.40
2023,04,27,17,11,18.40
2023,04,27,17,12,18.40
2023,04,27,17,13,18.40
2023,04,27,17,14,18.30
2023,04,27,17,15,18.30
2023,04,27,17,16,18.40
2023,04,27,17,17,18.30
2023,04,27,17,18,18.30
2023,04,27,17,19,18.30
2023,04,27,17,20,18.20
2023,04,27,17,21,18.20
2023,04,27,17,22,18.20
2023,04,27,17,23,18.20
2023,04,27,17,24,18.20
2023,04,27,17,25,18.20
2023,04,27,17,26,18.20
2023,04,27,17,27,18.10
2023,04,27,17,28,18.10
2023,04,27,17,29,18.10
2023,04,27,17,30,18.10
2023,04,27,17,31,18.10
2023,04,27,17,32,18.10
2023,04,27,17,33,18.00
2023,04,27,17,34,18.00
2023,04,27,17,35,17.90
2023,04,27,17,36,17.90
2023,04,27,17,37,17.80
2023,04,27,17,38,17.80
2023,04,27,17,39,17.80